W1LBM Weather Reports


time (UTC)temp
C
wind
direction
speed
KPH
gust
KPH
rain 1hr
cm
rain 24hr
cm
rain mn
cm
humidity
%
barometer
mb
20260503002313 8 134 0.0 0.0 0.00 0.08 0.08 90 1013.3
20260503001809 8 134 0.0 0.0 0.00 0.08 0.08 89 1013.3
20260503001305 9 134 0.0 0.0 0.00 0.08 0.08 89 1013.3
20260503000802 9 133 0.0 0.0 0.00 0.08 0.08 88 1013.3
20260503000300 9 133 0.0 0.0 0.00 0.08 0.08 87 1013.2
20260502235757 9 134 0.0 0.0 0.00 0.08 0.08 86 1013.2
20260502235254 9 135 0.0 0.0 0.00 0.08 0.08 86 1013.3
20260502234750 9 134 0.0 0.0 0.00 0.08 0.08 86 1013.3
20260502234248 9 133 0.0 0.0 0.00 0.08 0.08 86 1013.2
20260502233744 9 137 0.0 0.0 0.00 0.08 0.08 87 1013.4
20260502233241 9 138 0.0 0.0 0.00 0.08 0.08 87 1013.3
20260502232736 9 138 0.0 0.0 0.00 0.08 0.08 88 1013.5
20260502232234 9 137 0.0 0.0 0.00 0.08 0.08 88 1013.4
20260502231730 9 135 0.0 0.0 0.00 0.08 0.08 89 1013.3
20260502231228 9 135 0.0 0.0 0.00 0.08 0.08 88 1013.3
20260502230727 9 135 0.0 0.0 0.00 0.08 0.08 89 1013.4
20260502230225 9 133 0.0 0.0 0.00 0.08 0.08 88 1013.4
20260502225720 9 129 0.0 0.0 0.00 0.08 0.08 88 1013.3
20260502225218 9 134 0.0 0.0 0.00 0.08 0.08 89 1013.4
20260502224714 9 138 0.0 0.0 0.00 0.08 0.08 89 1013.3
20260502224211 9 133 0.0 0.0 0.00 0.08 0.08 89 1013.3
20260502223708 9 138 0.0 0.0 0.00 0.08 0.08 90 1013.3
20260502223206 9 150 0.0 0.0 0.00 0.08 0.08 90 1013.2
20260502222704 9 146 0.0 0.0 0.00 0.08 0.08 89 1013.2
20260502222200 9 141 0.0 0.0 0.00 0.08 0.08 89 1013.0
20260502221656 9 97 1.6 1.6 0.00 0.08 0.08 87 1013.1
20260502221153 10 239 3.2 3.2 0.00 0.08 0.08 85 1013.3
20260502220649 10 176 1.6 1.6 0.00 0.08 0.08 84 1013.4
20260502220145 10 161 3.2 3.2 0.00 0.08 0.08 83 1013.4
20260502215643 10 143 1.6 3.2 0.00 0.08 0.08 84 1013.3
20260502215139 10 77 1.6 1.6 0.00 0.08 0.08 84 1013.2
20260502214637 10 176 1.6 1.6 0.00 0.08 0.08 87 1013.2
20260502214134 10 139 0.0 0.0 0.00 0.08 0.08 87 1013.4
20260502213631 10 208 3.2 3.2 0.00 0.08 0.08 86 1013.2
20260502213128 10 183 1.6 3.2 0.00 0.08 0.08 86 1013.1
20260502212627 10 124 0.0 1.6 0.00 0.08 0.08 86 1013.2
20260502212125 11 142 1.6 1.6 0.00 0.08 0.08 86 1013.2
20260502211620 11 122 4.8 4.8 0.00 0.08 0.08 86 1013.2
20260502211118 11 172 6.4 6.4 0.00 0.08 0.08 85 1013.1
20260502210615 11 137 0.0 0.0 0.00 0.08 0.08 85 1013.1
20260502210112 11 159 4.8 6.4 0.00 0.08 0.08 84 1013.3
20260502205608 11 142 0.0 0.0 0.00 0.08 0.08 85 1013.1
20260502205106 11 122 1.6 3.2 0.00 0.08 0.08 84 1013.2
20260502204602 11 128 1.6 1.6 0.00 0.08 0.08 83 1013.2
20260502204100 11 134 0.0 0.0 0.00 0.08 0.08 84 1013.1
20260502203556 11 135 3.2 4.8 0.00 0.08 0.08 84 1013.2
20260502203054 11 134 1.6 1.6 0.00 0.08 0.08 83 1013.2
20260502202549 11 202 6.4 6.4 0.00 0.08 0.08 82 1013.1
20260502202048 11 140 1.6 1.6 0.00 0.08 0.08 82 1013.1
20260502201544 11 147 0.0 0.0 0.00 0.08 0.08 81 1013.1
20260502201040 11 135 4.8 9.7 0.00 0.08 0.08 81 1013.2
20260502200536 11 168 4.8 6.4 0.00 0.08 0.08 80 1013.3
20260502200034 11 196 3.2 4.8 0.00 0.08 0.08 81 1013.3
20260502195532 11 130 3.2 3.2 0.00 0.08 0.08 80 1013.5
20260502195027 11 174 6.4 6.4 0.00 0.08 0.08 79 1013.4
20260502194524 11 111 0.0 0.0 0.00 0.08 0.08 82 1013.6
20260502194020 11 123 0.0 0.0 0.00 0.08 0.08 82 1013.6
20260502193518 11 212 6.4 9.7 0.00 0.08 0.08 82 1013.4
20260502193015 11 155 1.6 3.2 0.00 0.08 0.08 82 1013.7
20260502192510 11 130 3.2 6.4 0.00 0.08 0.08 82 1013.6
20260502192008 11 125 1.6 1.6 0.00 0.08 0.08 83 1013.8
20260502191505 11 193 3.2 4.8 0.00 0.08 0.08 83 1013.8
20260502191002 11 132 0.0 0.0 0.00 0.08 0.08 84 1014.0
20260502190459 11 206 6.4 9.7 0.00 0.08 0.08 81 1013.9
20260502185956 11 133 1.6 3.2 0.00 0.08 0.08 80 1014.2
20260502185451 11 142 0.0 0.0 0.00 0.08 0.08 83 1014.0
20260502184948 11 134 1.6 1.6 0.00 0.08 0.08 84 1013.9
20260502184444 10 127 1.6 1.6 0.00 0.08 0.08 86 1014.1
20260502183940 10 132 3.2 3.2 0.00 0.08 0.08 86 1014.1
20260502183437 10 137 0.0 0.0 0.00 0.08 0.08 90 1014.2
20260502182932 10 126 0.0 1.6 0.00 0.08 0.08 92 1014.3
20260502182428 9 149 0.0 0.0 0.00 0.08 0.08 91 1014.4
20260502181924 9 150 0.0 1.6 0.00 0.08 0.08 91 1014.3
20260502181423 9 171 1.6 1.6 0.00 0.08 0.08 90 1014.4
20260502180921 9 145 0.0 0.0 0.00 0.08 0.08 91 1014.3
20260502180418 9 197 4.8 4.8 0.18 0.08 0.08 90 1014.5
20260502170336 10 150 3.2 4.8 0.00 0.00 0.00 85 1014.6
20260502164324 11 130 0.0 0.0 0.00 0.00 0.00 80 1014.5
20260502163820 11 144 0.0 0.0 0.00 0.00 0.00 80 1014.6
20260502163316 11 210 4.8 4.8 0.00 0.00 0.00 81 1014.5
20260502162814 11 133 0.0 0.0 0.00 0.00 0.00 83 1014.4
20260502162310 11 135 0.0 0.0 0.00 0.00 0.00 82 1014.4
20260502161808 11 140 0.0 0.0 0.00 0.00 0.00 81 1014.4
20260502161303 11 140 0.0 0.0 0.00 0.00 0.00 76 1014.4
20260502160801 11 150 3.2 3.2 0.00 0.00 0.00 79 1014.7
20260502160300 11 163 3.2 3.2 0.00 0.00 0.00 77 1014.7
20260502152229 13 127 1.6 1.6 0.00 0.00 0.00 75 1015.0
20260502151727 12 144 0.0 1.6 0.00 0.00 0.00 76 1015.1
20260502151224 12 122 0.0 0.0 0.00 0.00 0.00 77 1014.8
20260502150721 12 60 3.2 3.2 0.00 0.00 0.00 76 1014.9
20260502150218 12 137 0.0 0.0 0.00 0.00 0.00 79 1014.9
20260502130606 10 134 1.6 3.2 0.00 0.00 0.00 83 1016.0
20260502130104 10 183 0.0 1.6 0.00 0.00 0.00 84 1015.8
20260502123549 10 139 0.0 0.0 0.00 0.00 0.00 81 1015.8
20260502123046 10 187 3.2 3.2 0.00 0.00 0.00 80 1016.0
20260502122542 10 220 3.2 4.8 0.00 0.00 0.00 80 1015.8
20260502122040 10 195 3.2 3.2 0.00 0.00 0.00 80 1015.9
20260502121537 10 132 1.6 1.6 0.00 0.00 0.00 80 1015.7
20260502121035 10 146 0.0 0.0 0.00 0.00 0.00 79 1015.5
20260502120531 10 166 3.2 3.2 0.00 0.00 0.00 79 1015.5
20260502115526 10 141 0.0 0.0 0.00 0.00 0.00 78 1015.4
20260502115021 10 197 3.2 3.2 0.00 0.00 0.00 79 1015.4
20260502114518 10 159 4.8 4.8 0.00 0.00 0.00 78 1015.3
20260502114015 10 164 1.6 1.6 0.00 0.00 0.00 78 1015.3
20260502113513 10 133 1.6 1.6 0.00 0.00 0.00 78 1014.9
20260502113011 10 149 1.6 1.6 0.00 0.00 0.00 79 1014.9
20260502112509 9 150 1.6 1.6 0.00 0.00 0.00 81 1014.9
20260502112006 9 178 1.6 3.2 0.00 0.00 0.00 81 1015.1
20260502111503 9 165 1.6 3.2 0.00 0.00 0.00 81 1014.8
20260502111000 8 169 1.6 3.2 0.00 0.00 0.00 81 1015.1
20260502110458 8 174 3.2 3.2 0.00 0.00 0.00 81 1014.9
20260502105955 8 152 1.6 1.6 0.00 0.00 0.00 81 1015.0
20260502105453 8 159 1.6 3.2 0.00 0.00 0.00 81 1015.1
20260502104950 8 146 0.0 0.0 0.00 0.00 0.00 81 1014.8
20260502104447 8 162 1.6 1.6 0.00 0.00 0.00 81 1015.0
20260502103944 8 153 0.0 0.0 0.00 0.00 0.00 81 1015.1
20260502103442 8 140 0.0 0.0 0.00 0.00 0.00 81 1014.8
20260502102938 8 134 0.0 0.0 0.00 0.00 0.00 81 1014.9
20260502102436 8 146 0.0 0.0 0.00 0.00 0.00 80 1014.9
20260502101932 8 140 0.0 0.0 0.00 0.00 0.00 80 1014.8
20260502101431 8 142 0.0 0.0 0.00 0.00 0.00 80 1014.7
20260502100929 8 172 1.6 3.2 0.00 0.00 0.00 80 1014.7
20260502100428 8 139 0.0 0.0 0.00 0.00 0.00 80 1014.4
20260502091402 8 132 0.0 0.0 0.00 0.00 0.00 81 1014.5
20260502090859 8 140 0.0 0.0 0.00 0.00 0.00 81 1014.2
20260502090355 8 128 0.0 0.0 0.00 0.00 0.00 81 1014.5
20260502071250 8 135 0.0 0.0 0.00 0.00 0.00 74 1014.3
20260502070749 8 135 0.0 0.0 0.00 0.00 0.00 74 1014.4
20260502070246 9 136 0.0 0.0 0.00 0.00 0.00 72 1014.1
20260502065745 9 138 0.0 0.0 0.00 0.00 0.00 71 1014.3
20260502065242 10 145 0.0 0.0 0.00 0.00 0.00 70 1014.4
20260502064740 10 136 0.0 0.0 0.00 0.00 0.00 69 1014.5
20260502064238 10 166 1.6 1.6 0.00 0.00 0.00 69 1014.4
20260502063735 10 180 0.0 0.0 0.00 0.00 0.00 70 1014.5
20260502063233 10 149 0.0 0.0 0.00 0.00 0.00 69 1014.6
20260502062730 10 167 3.2 4.8 0.00 0.00 0.00 69 1014.7
20260502062228 10 152 0.0 0.0 0.00 0.00 0.00 69 1014.5
20260502061726 10 143 0.0 1.6 0.00 0.00 0.00 70 1014.5
20260502061223 10 152 0.0 0.0 0.00 0.00 0.00 70 1014.5
20260502060718 9 162 0.0 0.0 0.00 0.00 0.00 71 1014.5
20260502060214 9 146 0.0 0.0 0.00 0.00 0.00 73 1014.7
20260502055712 8 165 0.0 0.0 0.00 0.00 0.00 73 1014.7
20260502055210 8 129 0.0 0.0 0.00 0.00 0.00 76 1014.5
20260502054709 8 122 0.0 0.0 0.00 0.00 0.00 76 1014.5
20260502054206 8 125 0.0 0.0 0.00 0.00 0.00 78 1014.7
20260502053703 7 122 0.0 0.0 0.00 0.00 0.00 78 1014.7
20260502053200 7 131 0.0 0.0 0.00 0.00 0.00 78 1014.8
20260502052659 7 131 0.0 0.0 0.00 0.00 0.00 77 1014.8
20260502052157 7 128 0.0 0.0 0.00 0.00 0.00 76 1014.9
20260502051654 8 126 0.0 0.0 0.00 0.00 0.00 77 1014.9
20260502051152 8 126 0.0 0.0 0.00 0.00 0.00 74 1014.8
20260502050648 8 132 0.0 0.0 0.00 0.00 0.00 73 1014.9
20260502050145 8 127 0.0 0.0 0.00 0.00 0.00 73 1014.8
20260502045642 8 133 0.0 0.0 0.00 0.00 0.00 73 1014.9
20260502045139 8 133 0.0 0.0 0.00 0.00 0.00 72 1014.8
20260502044635 8 135 0.0 0.0 0.00 0.00 0.00 71 1014.9
20260502044132 8 139 0.0 0.0 0.00 0.00 0.00 71 1014.8
20260502043630 9 140 0.0 0.0 0.00 0.00 0.00 70 1015.0
20260502043127 9 141 0.0 0.0 0.00 0.00 0.00 69 1014.8
20260502042620 9 145 0.0 0.0 0.00 0.00 0.00 69 1014.9
20260502042118 9 156 0.0 0.0 0.00 0.00 0.00 68 1015.0
20260502041615 9 141 0.0 0.0 0.00 0.00 0.00 66 1014.9
20260502041112 9 173 0.0 0.0 0.00 0.00 0.00 67 1014.9
20260502040609 9 149 0.0 0.0 0.00 0.00 0.00 66 1014.8
20260502040106 9 142 0.0 0.0 0.00 0.00 0.00 65 1014.9
20260502035602 10 145 0.0 0.0 0.00 0.00 0.00 63 1015.2
20260502035059 10 156 0.0 0.0 0.00 0.00 0.00 63 1015.0
20260502034557 10 141 0.0 0.0 0.00 0.00 0.00 63 1015.1
20260502034055 10 143 0.0 0.0 0.00 0.00 0.00 63 1014.9
20260502033553 10 143 0.0 0.0 0.00 0.00 0.00 63 1014.9
20260502033051 10 137 0.0 0.0 0.00 0.00 0.00 62 1014.9
20260502032546 10 159 0.0 0.0 0.00 0.00 0.00 61 1015.0
20260502032043 10 148 0.0 0.0 0.00 0.00 0.00 60 1014.9
20260502031541 10 146 0.0 0.0 0.00 0.00 0.00 59 1015.0
20260502031039 10 150 0.0 0.0 0.00 0.00 0.00 58 1015.1
20260502030537 10 148 0.0 0.0 0.00 0.00 0.00 60 1014.9
20260502030035 10 156 0.0 0.0 0.00 0.00 0.00 57 1014.9
20260502025532 10 153 0.0 0.0 0.00 0.00 0.00 57 1014.9
20260502025030 10 160 0.0 0.0 0.00 0.00 0.00 57 1014.7
20260502024527 10 154 0.0 0.0 0.00 0.00 0.00 57 1014.9
20260502024025 11 150 0.0 0.0 0.00 0.00 0.00 56 1014.9
20260502023523 10 186 0.0 0.0 0.00 0.00 0.00 56 1014.9
20260502023020 10 140 0.0 0.0 0.00 0.00 0.00 57 1014.8
20260502022516 10 144 0.0 0.0 0.00 0.00 0.00 59 1014.8
20260502022014 10 143 0.0 0.0 0.00 0.00 0.00 59 1015.0
20260502021511 9 147 0.0 0.0 0.00 0.00 0.00 59 1015.1
20260502021008 8 142 0.0 0.0 0.00 0.00 0.00 61 1015.0
20260502020506 8 134 0.0 0.0 0.00 0.00 0.00 61 1014.9
20260502020002 8 132 0.0 0.0 0.00 0.00 0.00 62 1014.7
20260502015500 8 126 0.0 0.0 0.00 0.00 0.00 63 1014.7
20260502014956 8 139 0.0 0.0 0.00 0.00 0.00 66 1014.7
20260502014453 8 172 3.2 3.2 0.00 0.00 0.00 62 1014.7
20260502013950 8 136 0.0 0.0 0.00 0.00 0.00 64 1014.4
20260502013446 8 136 0.0 0.0 0.00 0.00 0.00 62 1014.4
20260502012942 8 136 0.0 0.0 0.00 0.00 0.00 62 1014.5
20260502012440 8 137 0.0 0.0 0.00 0.00 0.00 65 1014.5
20260502011937 8 137 0.0 0.0 0.00 0.00 0.00 64 1014.4
20260502011433 8 137 0.0 0.0 0.00 0.00 0.00 63 1014.4
20260502010930 8 137 0.0 0.0 0.00 0.00 0.00 63 1014.4
20260502010427 8 140 0.0 0.0 0.00 0.00 0.00 63 1014.4
20260502005923 9 130 0.0 0.0 0.00 0.00 0.00 63 1014.3
20260502005421 9 130 0.0 0.0 0.00 0.00 0.00 64 1014.0
20260502004919 9 130 0.0 0.0 0.00 0.00 0.00 67 1013.9
20260502004415 9 130 0.0 0.0 0.00 0.00 0.00 61 1014.1
20260502003912 10 130 0.0 0.0 0.00 0.00 0.00 53 1013.9
20260502003409 10 130 0.0 0.0 0.00 0.00 0.00 52 1013.8
20260502002905 10 130 0.0 0.0 0.00 0.00 0.00 49 1014.0